www.pogodaiklimat.ru

Погода и климат >> Архив погоды >> Россия >> Ростовская область >> Белая Калитва


ПОГОДА в Белой Калитве

  • Прогноз погоды в Белой Калитве
  • Монитор погоды в Белой Калитве

АРХИВ ПОГОДЫ в Белой Калитве

Время (UTC), дата Ветер
(напр.,м/с)
 
Видим.   Явления Облачность Т
(С)
Тd
(С)
f
(%)
Тe
(С)
Тes
(С)
Комфортность P
(гПа)
Po
(гПа)
Тmin
(С)
Tmax
(С)
R
(мм)
R24
(мм)
S
(см)
15 16.05 СВ 2 20 км 4/3 1000 м
[Cu med, cong Ci fib]
+26.1 +16.0 54 +29 +31 жарко 1014.6 996.8 +27.4
18 16.05 СВ 4 20 км ясно +20.7 +15.0 70 +24 +24 комфорт 1015.1 997.0
21 16.05 СВ 5 20 км ясно +19.0 +13.9 72 +20 +20 1015.4 997.2
00 17.05 СВ 5 20 км ясно +16.4 +13.7 84 +15 +15 1015.7 997.3
03 17.05 СВ 5 20 км ясно +15.9 +13.6 86 +15 +15 1015.2 996.8 +15.3
06 17.05 СВ 5 20 км ясно +22.6 +16.4 68 +27 +32 душно 1015.3 997.3
09 17.05 В 5 20 км 4/3 600 м
[Cu hum Ci fib]
+26.6 +17.4 57 +31 +37 душно 1014.5 996.8
12 17.05 СВ 5 20 км 6/4 600 м
[Cu med, cong Ci fib]
+27.1 +17.2 55 +31 +35 душно 1014.0 996.3
15 17.05 СВ 5 20 км 10/4 600 м
[Sc diur, vesp Ci fib]
+25.3 +16.0 56 +29 +29 душно 1013.6 995.8 +28.0
18 17.05 СВ 5 20 км 10/0
[Ac trans Ci fib]
+21.0 +15.5 71 +24 +24 комфорт 1014.2 996.2
21 17.05 В 5 20 км 8/0
[Ac trans Ci fib]
+18.2 +14.1 77 +18 +18 1014.5 996.3
00 18.05 В 6 20 км 10/8 600 м
[Sc Ac As]
+16.1 +11.6 75 +15 +15 1014.8 996.4
03 18.05 В 5 20 км 9/9 600 м
[Sc]
+15.2 +10.6 74 +14 +14 1014.8 996.3 +15.1
06 18.05 В 6 20 км 8/5 600 м
[Cb calv Ac trans Ci fib]
+17.7 +10.4 62 +17 +18 1015.1 996.7
09 18.05 В 7-11
{11}
20 км 4/0
[Ac trans Ci fib]
+22.1 +10.4 47 +24 +28 комфорт 1014.4 996.3
12 18.05 В 6
{12}
20 км 4/0
[Ac trans Ci fib]
+22.7 +8.9 41 +24 +28 комфорт 1013.3 995.3
15 18.05 В 5
{10}
20 км 3/0
[Ac trans Ci fib]
+21.5 +8.1 42 +23 +24 комфорт 1012.2 994.2 +23.0
18 18.05 В 4 20 км 1/0
[Ac trans]
+16.5 +6.5 52 +16 +16 1012.8 994.4
21 18.05 В 4 20 км ясно +15.0 +5.2 52 +14 +14 1012.8 994.3
00 19.05 В 4 20 км ясно +12.3 +5.9 65 +10 +10 1012.7 994.1
03 19.05 СВ 3 20 км 3/1 600 м
[Sc Ac trans]
+12.8 +6.9 67 +12 +12 1013.1 994.5 +11.2
06 19.05 В 5 20 км 3/0
[Ci fib]
+20.5 +7.4 43 +22 +27 комфорт 1013.2 995.1
09 19.05 В 4 20 км 3/0
[Ci fib]
+23.3 +6.5 34 +24 +35 комфорт 1013.1 995.1
12 19.05 СВ 4 20 км 3/1 1000 м
[Sc Ci fib]
+24.5 +5.9 30 +24 +31 комфорт 1012.8 994.9
15 19.05 СВ 2 20 км 3/3 600 м
[Sc]
+23.6 +7.2 35 +24 +25 комфорт 1013.1 995.2 +24.9
18 19.05 СВ 2 20 км ясно +18.2 +7.2 49 +19 +19 1014.5 996.3
21 19.05 СВ 4 20 км ясно +14.7 +7.4 62 +14 +14 1015.1 996.6
00 20.05 СВ 4 20 км ясно +12.6 +5.5 62 +11 +11 1016.1 997.5
03 20.05 СВ 4 20 км ясно +12.8 +5.5 61 +11 +12 1017.6 998.9 +11.3
06 20.05 В 3 20 км ясно +17.9 +8.2 53 +18 +26 1018.6 1000.2
09 20.05 В 4 20 км 1/0
[Ci fib]
+22.0 +6.2 36 +23 +34 комфорт 1018.7 1000.6
12 20.05 В 3 20 км 4/0
[Ci fib]
+22.7 +4.9 31 +23 +32 комфорт 1018.6 1000.5
15 20.05 СВ 3 20 км 3/0
[Ci fib]
+21.4 +4.3 33 +22 +23 комфорт 1018.8 1000.6 +22.9
18 20.05 В 2 20 км ясно +16.5 +2.6 39 +17 +17 1019.5 1001.0
21 20.05 ЮВ 2 20 км ясно +14.3 +2.7 46 +14 +14 1019.8 1001.1
00 21.05 ЮЗ 1 20 км ясно +13.2 +2.3 48 +14 +14 1020.3 1001.6
03 21.05 СВ 1 20 км ясно +13.3 +5.7 60 +14 +15 1021.2 1002.5 +10.9
06 21.05 ЮЗ 1 20 км 1/0
[Ci fib]
+19.0 +3.5 36 +20 +32 1021.2 1002.8
09 21.05 ЮВ 3 20 км 3/0
[Ci fib]
+22.5 +4.0 30 +23 +36 комфорт 1020.7 1002.5
12 21.05 ЮВ 3 20 км 8/0
[Ci fib]
+23.8 +4.2 28 +23 +32 комфорт 1019.6 1001.5
15 21.05 ЮВ 3 20 км 3/0
[Ci fib]
+22.2 +5.8 34 +23 +24 комфорт 1018.6 1000.4 +24.0
18 21.05 ЮВ 4 20 км 4/3 1000 м
[Sc Ac trans Ci fib]
+15.9 +5.9 51 +15 +15 1018.8 1000.3
21 21.05 В 4 20 км 3/3 600 м
[Sc]
+14.8 +5.2 53 +14 +14 1018.2 999.6
00 22.05 ЮВ 4 20 км 3/3 600 м
[Sc]
+13.9 +5.5 57 +13 +13 1017.2 998.6
03 22.05 ЮВ 5 20 км 8/5 600 м
[Sc Ac trans Ci fib]
+14.2 +7.0 62 +13 +13 1017.1 998.5 +13.2
06 22.05 Ю 7-11
{12}
20 км 10/0
[Ac trans Ci fib]
+18.3 +5.5 43 +18 +20 1016.0 997.7
09 22.05 Ю 7-10
{15}
20 км 10/8 600 м
[Sc Ac trans Ci fib]
+20.6 +4.4 34 +21 +21 комфорт 1014.7 996.5
12 22.05 ЮВ 6
{12}
20 км 10/8 600 м
[Sc Ac As]
+20.6 +3.1 31 +21 +21 комфорт 1013.1 995.0
15 22.05 Ю 3
{10}
20 км 10/10 600 м
[Sc]
+19.5 +9.4 52 +21 +21 комфорт 1011.7 993.5 +21.8
18 22.05 Ю 2 50 км слаб. ливневой дождь 10/10 300 м
[Cb cap]
+15.1 +14.2 94 +15 +15 1011.5 993.1
21 22.05 ЮЗ 2 20 км {ливн. осадки} 8/4 600 м
[Cb calv Ac trans]
+14.2 +13.3 94 +14 +14 1010.9 992.4
00 23.05 ЮЗ 2 10 км в посл. час ливневой дождь 10/10 300 м
[Cb calv]
+14.5 +13.7 95 +14 +14 1010.7 992.2
03 23.05 ЮЗ 2 10 км в посл. час ливневой дождь 10/10 300 м
[Cb calv]
+14.2 +13.5 96 +14 +14 1009.9 991.5 +13.8 4
06 23.05 ЮЗ 2 20 км {ливн. осадки} 10/8 600 м
[Cb calv Ac trans Ci fib]
+18.3 +14.7 80 +19 +20 1009.6 991.5
09 23.05 З 3
{11}
20 км в посл. час ливневой дождь 10/6 300 м
[Cb calv As trans Ci fib]
+20.8 +12.6 59 +23 +26 комфорт 1008.3 990.3

 

Местоположение метеостанции Белая Калитва (Ростовская область, Россия): широта 48.23 долгота 40.82 высота над уровнем моря 156 м.

В архиве по умолчанию представлена погода в Белой Калитве за последнюю неделю. Архивные данные за месяц целиком и за предыдущие месяцы, начиная с января 2011 года, Вы можете получить, выбрав интересующий диапазон дат из раскрывающегося списка и нажав кнопку "Ввод!".


*Определитесь, кто Вы:
робот инопланетянин человек

Внимание! Время в таблицах - всемирное. Для получения местного времени необходимо прибавить поправку, которая равна 3 ч.

Смотрите также архив погоды в соседних городах и на ближайших метеорологических станциях:

Погода в Каменск-Шахтинском (Ростовская область, Россия) (39 км)
Погода в Шахтах (Ростовская область, Россия) (72 км)
Погода в Константиновске (Ростовская область, Россия) (75 км)
Погода в Морозовске (Ростовская область, Россия) (79 км)
Погода в Семикаракорске (Ростовская область, Россия) (79 км)
Погода в Миллерово (Ростовская область, Россия) (84 км)
Погода в Аэропорту Платов (Ростовская область, Россия) (106 км)
Погода в Цимлянске (Ростовская область, Россия) (118 км)
Погода в Ростове-на-Дону (Ростовская область, Россия) (130 км)
Погода в Боковской (Ростовская область, Россия) (133 км)

Пояснения к столбцам:

Ветер - указаны скорость ветра в м/с - средняя за 10 мин, порывы в срок и между сроками (в фигурных скобках) и направление, откуда дует ветер: С - северный, СВ - северо-восточный, В - восточный, ЮВ - юго-восточный, Ю - южный, ЮЗ - юго-западный, З - западный, СЗ - северо-западный.
Видимость - горизонтальная дальность видимости в метрах или километрах. При видимости от 1 до 10 км при отсутствии осадков обычно наблюдается дымка, при ухудшении видимости до 1 км и менее - туман. В сухую погоду видимость может ухудшаться дымом, пылью или мглою.
Явления - указаны атмосферные явления, наблюдавшиеся в срок или в последний час перед сроком; фигурными скобками обозначены явления, наблюдавшиеся между сроками (за 1-3 часа до срока); квадратными скобками обозначены град или гололедные отложения с указанием их диаметра в мм.
Облачность - указаны через наклонную черту общая и нижняя облачность в баллах и высота нижней границы облаков в метрах; квадратными скобками обозначены формы облаков: Ci - перистые, Cs - перисто-слоистые, Cc - перисто-кучевые, Ac - высококучевые, As - высокослоистые, Sc - слоисто-кучевые, Ns - слоисто-дождевые, Cu - кучевые, Cb - кучево-дождевые. Подробнее классификацию облаков см. в Атласе облаков (PDF).
T - Температура воздуха - температура, измеренная на высоте 2 м над землей.
Td - Температура точки росы - температура, при понижении до которой содержащийся в воздухе водяной пар достигнет насыщения.
f - Относительная влажность воздуха - влажноcть воздуха, измеренная на высоте 2 м над землей.
Te - Эффективная температура - температура, которую ощущает одетый по сезону человек в тени. Характеристика душности погоды. При расчете учитывается влияние влажности воздуха и скорости ветра на теплоощущения человека.
Tes - Эффективная температура на солнце - температура, которую ощущает человек, с поправкой на солнечный нагрев. Характеристика знойности погоды. Зависит от высоты солнца над горизонтом, облачности и скорости ветра. Ночью, в пасмурную погоду, а также при ветре 12 м/с и более поправка равна нулю.
P - Атмосферное давление - приведенное к уровню моря атмосферное давление.
Po - Атмосферное давление - измеренное на уровне метеостанции атмосферное давление.
Tmin - Минимальная температура - минимум температуры воздуха на высоте 2 м над землей.
Tmax - Максимальная температура - максимум температуры воздуха на высоте 2 м над землей.
R - Количество осадков - Количество выпавших осадков за период времени, мм. При наведении курсора мыши на число - период времени, за который выпало указанное количество осадков.
R24 - Количество осадков - Количество выпавших осадков за 24 часа, мм.
S - Снежный покров - Высота снежного покрова, см. При наведении курсора мыши на число - состояние снежного покрова и степень покрытия местности в баллах.